Location: Libas
(9.8833°N, 125.9833°E)
Time: 23:42:45
(UTC+00:00)

CZ-4B R/B - Visible Passes

Search period start: 01 March 2021 00:00
Search period end: 11 March 2021 00:00
Orbit: 486 x 651 km, 97.9° (Epoch: 01 March)

Date Brightness Start Highest point End Pass type
(mag) Time Alt. Az. Time Alt. Az. Time Alt. Az.
01 Mar 3.5 20:31:01 10° NNE 20:35:29 65° ESE 20:39:54 10° S visible
02 Mar 3.5 20:32:29 10° NNE 20:36:58 68° ESE 20:41:22 10° S visible
03 Mar 3.4 20:33:57 10° NNE 20:38:26 71° E 20:42:50 10° S visible
04 Mar 3.3 20:35:25 10° NNE 20:39:54 74° E 20:44:18 10° S visible
05 Mar 3.2 20:36:54 10° NNE 20:41:23 78° ESE 20:45:46 10° S visible
06 Mar 3.2 20:38:21 10° NNE 20:42:51 81° ESE 20:47:13 10° S visible
07 Mar 3.1 20:39:50 10° NNE 20:44:19 85° ESE 20:48:40 10° S visible
08 Mar 3.1 20:41:18 10° NNE 20:45:47 88° ESE 20:50:07 10° SSW visible
09 Mar 3.0 20:42:47 10° N 20:47:15 88° WNW 20:51:34 10° SSW visible
10 Mar 3.0 20:44:16 10° N 20:48:43 84° WNW 20:53:01 10° SSW visible
